Terminal Aerodrome Forecast
Issued by NWS

Home | Current Version | Previous Version | Text Only | Print | Product List | Glossary Off
Versions: 1 2 3 4 5 6 7 8 9 10 11 12 13 14 15 16 17 18 19 20

000
FTUS43 KFGF 111000 AAA
TAFBJI
TAF AMD
KBJI 111011Z 1110/1206 15004KT P6SM OVC008
      TEMPO 1110/1114 BKN035
     FM111500 23007KT P6SM BKN080
     FM111800 27010KT P6SM SCT250=

USA.gov is the U.S. government's official web portal to all federal, state and local government web resources and services.